STARLINK-1757

decayed
NORAD ID: 46339 Int'l Des: 2020-062 Owner: SPXS Country: US Constellation: starlink
LEOCIRCULAR
Gruppe

Über STARLINK-1757

Beschreibung wird geladen...

Höhenverlauf

Altitude vs Time

uPlot chart will show altitude changes over time

Zweizeiliger Elementsatz

1 46339U 20062Q 21338.29080382 .48380163 12149-4 12515-2 0 9994
2 46339 53.0241 91.6072 0020743 161.8695 198.9472 16.43596696 70911
Epoch: 4. Dez. 2021 • Age: 33145 hours

Aktueller Status

Position data unavailable
Startdatum 3. Sept. 2020
Alter 5 years
Verglühungsdatum 4. Dez. 2021
Typ internet

Technische Details

Klassifizierung Payload
Masse 260.00 kg
Trockenmasse 248.00 kg
Gesamtmasse 260.00 kg
Länge 0.20 m
Durchmesser 2.80 m
Spannweite 9.00 m
Form Box + pan
Hersteller SPXS
Bus-Typ Starlink
Phasenstatus Reentered
Besitzer/Staat SPXS/US

Große Konstellationen

Loading constellations...